DLH8NL EDDF-LSZH

Flight info

Callsign DLH8NL
Flight time 0h 57m
Altitude 23000
Route ANEKI2L/18 ANEKI Y163 NEKLO Y171 INKAM T725 LAMGO T721 RILAX
Aircraft A320/M-SDE2E3FGIJ1LORWXYZ/HB1

Departure

Time 2026-05-05 18:18
Airport Frankfurt Main Airport (EDDF)

Arrival

Time 2026-05-05 19:15
Airport Zürich Airport (LSZH)
Time Latitude Longitude Altitude Speed Heading
2026-05-05 17:32 50.04752 8.56883 365 ft 0 kts 294°
2026-05-05 17:55 50.04745 8.56908 358 ft 4 kts 292°
2026-05-05 17:55 50.04736 8.56940 363 ft 3 kts 295°
2026-05-05 17:56 50.04731 8.56975 363 ft 4 kts 246°
2026-05-05 17:56 50.04747 8.57001 386 ft 3 kts 204°
2026-05-05 17:56 50.04732 8.56991 362 ft 4 kts 204°
2026-05-05 17:56 50.04708 8.56973 375 ft 4 kts 205°
2026-05-05 17:57 50.04683 8.56955 362 ft 4 kts 205°
2026-05-05 17:57 50.04659 8.56938 361 ft 4 kts 205°
2026-05-05 17:57 50.04654 8.56934 363 ft 0 kts 205°
2026-05-05 18:02 50.04643 8.56927 363 ft 6 kts 204°
2026-05-05 18:02 50.04569 8.56896 362 ft 13 kts 195°
2026-05-05 18:02 50.04490 8.56862 359 ft 11 kts 197°
2026-05-05 18:02 50.04438 8.56779 359 ft 13 kts 239°
2026-05-05 18:03 50.04402 8.56621 361 ft 16 kts 250°
2026-05-05 18:03 50.04374 8.56502 358 ft 4 kts 250°
2026-05-05 18:03 50.04366 8.56467 360 ft 3 kts 249°
2026-05-05 18:03 50.04363 8.56453 364 ft 0 kts 249°
2026-05-05 18:04 50.04359 8.56440 362 ft 5 kts 249°
2026-05-05 18:04 50.04334 8.56335 361 ft 15 kts 250°
2026-05-05 18:04 50.04292 8.56159 358 ft 19 kts 249°
2026-05-05 18:05 50.04240 8.55946 361 ft 23 kts 249°
2026-05-05 18:05 50.04181 8.55710 358 ft 24 kts 249°
2026-05-05 18:05 50.04123 8.55463 356 ft 25 kts 252°
2026-05-05 18:05 50.04084 8.55295 354 ft 25 kts 250°
2026-05-05 18:06 50.04039 8.55102 354 ft 14 kts 249°
2026-05-05 18:06 50.04030 8.55066 358 ft 0 kts 249°
2026-05-05 18:06 50.04018 8.55019 358 ft 13 kts 249°
2026-05-05 18:07 50.03974 8.54836 354 ft 20 kts 250°
2026-05-05 18:07 50.03924 8.54614 350 ft 23 kts 251°
2026-05-05 18:07 50.03862 8.54371 353 ft 25 kts 245°
2026-05-05 18:07 50.03777 8.54123 346 ft 27 kts 245°
2026-05-05 18:08 50.03712 8.53850 346 ft 28 kts 250°
2026-05-05 18:08 50.03642 8.53564 337 ft 29 kts 249°
2026-05-05 18:08 50.03582 8.53314 338 ft 19 kts 249°
2026-05-05 18:08 50.03540 8.53151 337 ft 17 kts 247°
2026-05-05 18:09 50.03497 8.52969 337 ft 14 kts 250°
2026-05-05 18:09 50.03495 8.52959 337 ft 0 kts 250°
2026-05-05 18:10 50.03493 8.52955 337 ft 2 kts 250°
2026-05-05 18:10 50.03485 8.52919 335 ft 4 kts 250°
2026-05-05 18:10 50.03476 8.52883 333 ft 3 kts 246°
2026-05-05 18:10 50.03468 8.52860 334 ft 0 kts 244°
2026-05-05 18:12 50.03465 8.52848 335 ft 3 kts 244°
2026-05-05 18:12 50.03455 8.52817 332 ft 3 kts 244°
2026-05-05 18:13 50.03448 8.52793 334 ft 2 kts 244°
2026-05-05 18:13 50.03443 8.52775 333 ft 0 kts 249°
2026-05-05 18:13 50.03436 8.52744 333 ft 4 kts 251°
2026-05-05 18:14 50.03433 8.52729 331 ft 0 kts 250°
2026-05-05 18:15 50.03426 8.52701 333 ft 4 kts 250°
2026-05-05 18:15 50.03414 8.52647 334 ft 5 kts 255°
2026-05-05 18:16 50.03411 8.52603 336 ft 2 kts 246°
2026-05-05 18:16 50.03396 8.52597 330 ft 4 kts 196°
2026-05-05 18:16 50.03382 8.52595 336 ft 0 kts 181°
2026-05-05 18:17 50.03358 8.52594 336 ft 24 kts 182°
2026-05-05 18:17 50.02910 8.52600 332 ft 100 kts 180°
2026-05-05 18:17 50.02007 8.52605 350 ft 156 kts 180°
2026-05-05 18:18 50.00918 8.52587 1020 ft 154 kts 181°
2026-05-05 18:18 49.99835 8.52611 1701 ft 162 kts 181°
2026-05-05 18:18 49.98644 8.52664 2155 ft 180 kts 180°
2026-05-05 18:18 49.97335 8.52761 2607 ft 196 kts 179°
2026-05-05 18:19 49.95932 8.52902 3122 ft 209 kts 178°
2026-05-05 18:19 49.94415 8.53056 3495 ft 230 kts 179°
2026-05-05 18:19 49.92734 8.53184 4075 ft 244 kts 179°
2026-05-05 18:19 49.91091 8.53302 5423 ft 232 kts 179°
2026-05-05 18:20 49.89478 8.53412 6421 ft 233 kts 180°
2026-05-05 18:20 49.87853 8.53516 7300 ft 235 kts 180°
2026-05-05 18:20 49.86223 8.53619 8151 ft 239 kts 180°
2026-05-05 18:20 49.84550 8.53728 9047 ft 242 kts 180°
2026-05-05 18:21 49.82834 8.53836 9943 ft 245 kts 180°
2026-05-05 18:21 49.81122 8.53946 10748 ft 249 kts 180°
2026-05-05 18:21 49.79374 8.54047 11398 ft 261 kts 182°
2026-05-05 18:21 49.77495 8.54061 11740 ft 284 kts 183°
2026-05-05 18:22 49.75438 8.54020 12041 ft 307 kts 184°
2026-05-05 18:22 49.73233 8.53962 12496 ft 323 kts 183°
2026-05-05 18:22 49.70959 8.53907 13229 ft 330 kts 183°
2026-05-05 18:22 49.68652 8.53861 13964 ft 334 kts 183°
2026-05-05 18:23 49.66282 8.53821 14698 ft 337 kts 182°
2026-05-05 18:23 49.63954 8.53786 15393 ft 340 kts 182°
2026-05-05 18:23 49.61544 8.53753 16119 ft 343 kts 182°
2026-05-05 18:23 49.59176 8.53723 16825 ft 346 kts 182°
2026-05-05 18:24 49.56753 8.53693 17539 ft 350 kts 182°
2026-05-05 18:24 49.54312 8.53660 18223 ft 353 kts 182°
2026-05-05 18:24 49.51843 8.53626 18828 ft 356 kts 181°
2026-05-05 18:24 49.49361 8.53590 19425 ft 359 kts 181°
2026-05-05 18:25 49.46846 8.53552 20025 ft 362 kts 181°
2026-05-05 18:25 49.45138 8.53526 20426 ft 364 kts 181°
2026-05-05 18:25 49.41760 8.53469 21177 ft 369 kts 181°
2026-05-05 18:25 49.39183 8.53427 21723 ft 373 kts 181°
2026-05-05 18:26 49.36572 8.53387 22284 ft 376 kts 181°
2026-05-05 18:26 49.33906 8.53350 22732 ft 379 kts 181°
2026-05-05 18:26 49.31319 8.53317 22824 ft 373 kts 181°
2026-05-05 18:26 49.28784 8.53281 22836 ft 356 kts 181°
2026-05-05 18:27 49.26334 8.53241 22834 ft 352 kts 181°
2026-05-05 18:27 49.23897 8.53199 22833 ft 350 kts 181°
2026-05-05 18:27 49.21457 8.53160 22829 ft 350 kts 181°
2026-05-05 18:27 49.19029 8.53124 22832 ft 349 kts 181°
2026-05-05 18:28 49.14219 8.53057 22840 ft 348 kts 181°
2026-05-05 18:28 49.11793 8.53021 22832 ft 348 kts 181°
2026-05-05 18:28 49.09371 8.52983 22832 ft 348 kts 181°
2026-05-05 18:29 49.06949 8.52949 22839 ft 348 kts 181°
2026-05-05 18:29 49.04525 8.52919 22832 ft 348 kts 181°
2026-05-05 18:29 49.02097 8.52889 22832 ft 348 kts 181°
2026-05-05 18:29 48.99676 8.52855 22831 ft 348 kts 181°
2026-05-05 18:30 48.97253 8.52820 22836 ft 348 kts 181°
2026-05-05 18:30 48.94832 8.52783 22837 ft 348 kts 181°
2026-05-05 18:30 48.92414 8.52745 22843 ft 347 kts 181°
2026-05-05 18:30 48.89997 8.52707 22843 ft 347 kts 181°
2026-05-05 18:31 48.87584 8.52672 22843 ft 347 kts 181°
2026-05-05 18:31 48.85173 8.52640 22848 ft 347 kts 181°
2026-05-05 18:31 48.82760 8.52609 22842 ft 347 kts 181°
2026-05-05 18:31 48.80347 8.52574 22841 ft 347 kts 181°
2026-05-05 18:32 48.77936 8.52536 22837 ft 347 kts 181°
2026-05-05 18:32 48.75526 8.52494 22848 ft 346 kts 181°
2026-05-05 18:32 48.73115 8.52452 22849 ft 346 kts 181°
2026-05-05 18:32 48.70710 8.52418 22851 ft 345 kts 181°
2026-05-05 18:33 48.68310 8.52387 22847 ft 345 kts 181°
2026-05-05 18:33 48.65911 8.52357 22843 ft 342 kts 181°
2026-05-05 18:33 48.63553 8.52328 22841 ft 337 kts 181°
2026-05-05 18:33 48.61218 8.52299 22841 ft 335 kts 181°
2026-05-05 18:34 48.58887 8.52268 22844 ft 335 kts 181°
2026-05-05 18:34 48.56559 8.52234 22844 ft 335 kts 181°
2026-05-05 18:34 48.54224 8.52200 22843 ft 335 kts 181°
2026-05-05 18:34 48.51896 8.52169 22843 ft 335 kts 181°
2026-05-05 18:35 48.49566 8.52134 22843 ft 335 kts 181°
2026-05-05 18:35 48.47230 8.52100 22843 ft 335 kts 181°
2026-05-05 18:35 48.44905 8.52065 22844 ft 335 kts 180°
2026-05-05 18:35 48.42576 8.52031 22843 ft 335 kts 181°
2026-05-05 18:36 48.40257 8.51721 22845 ft 334 kts 195°
2026-05-05 18:36 48.38177 8.50206 22842 ft 336 kts 217°
2026-05-05 18:36 48.36457 8.47823 22841 ft 337 kts 223°
2026-05-05 18:36 48.34808 8.45323 22837 ft 337 kts 224°
2026-05-05 18:37 48.33165 8.42804 22849 ft 337 kts 224°
2026-05-05 18:37 48.31528 8.40277 22850 ft 337 kts 223°
2026-05-05 18:37 48.29688 8.38141 22767 ft 332 kts 205°
2026-05-05 18:37 48.27508 8.37179 22322 ft 327 kts 184°
2026-05-05 18:38 48.25266 8.37585 21865 ft 326 kts 161°
2026-05-05 18:38 48.23309 8.39298 21398 ft 329 kts 139°
2026-05-05 18:38 48.21944 8.42052 20928 ft 334 kts 118°
2026-05-05 18:38 48.21057 8.45229 20438 ft 336 kts 114°
2026-05-05 18:39 48.20221 8.48486 19888 ft 334 kts 114°
2026-05-05 18:39 48.19382 8.51784 19338 ft 333 kts 114°
2026-05-05 18:39 48.18560 8.54992 18818 ft 332 kts 115°
2026-05-05 18:39 48.17459 8.58025 18258 ft 328 kts 128°
2026-05-05 18:40 48.15836 8.60299 17919 ft 318 kts 154°
2026-05-05 18:40 48.13798 8.61547 17859 ft 316 kts 168°
2026-05-05 18:40 48.11707 8.62102 17865 ft 315 kts 179°
2026-05-05 18:40 48.09552 8.61965 17645 ft 308 kts 193°
2026-05-05 18:41 48.07531 8.60981 17261 ft 302 kts 207°
2026-05-05 18:41 48.05645 8.59634 16875 ft 301 kts 207°
2026-05-05 18:41 48.03768 8.58269 16508 ft 299 kts 207°
2026-05-05 18:41 48.01918 8.56918 16157 ft 297 kts 208°
2026-05-05 18:42 48.00052 8.55556 15811 ft 296 kts 208°
2026-05-05 18:42 47.98197 8.54235 15472 ft 294 kts 203°
2026-05-05 18:42 47.96186 8.53736 15144 ft 298 kts 179°
2026-05-05 18:42 47.94185 8.54581 14819 ft 304 kts 157°
2026-05-05 18:43 47.92322 8.56112 14458 ft 306 kts 154°
2026-05-05 18:43 47.90486 8.57713 14124 ft 305 kts 154°
2026-05-05 18:43 47.88667 8.59316 13789 ft 304 kts 154°
2026-05-05 18:43 47.86848 8.60928 13429 ft 303 kts 154°
2026-05-05 18:44 47.85043 8.62533 13078 ft 301 kts 154°
2026-05-05 18:44 47.83251 8.64133 12720 ft 300 kts 154°
2026-05-05 18:44 47.81468 8.65728 12369 ft 298 kts 154°
2026-05-05 18:44 47.79700 8.67314 12041 ft 296 kts 154°
2026-05-05 18:45 47.77943 8.68895 11690 ft 295 kts 154°
2026-05-05 18:45 47.76197 8.70469 11346 ft 293 kts 154°
2026-05-05 18:45 47.74459 8.72041 11008 ft 291 kts 154°
2026-05-05 18:45 47.72737 8.73599 10882 ft 290 kts 154°
2026-05-05 18:46 47.71005 8.75163 10890 ft 291 kts 154°
2026-05-05 18:46 47.69269 8.76722 10888 ft 291 kts 154°
2026-05-05 18:46 47.67544 8.78277 10889 ft 291 kts 154°
2026-05-05 18:46 47.65807 8.79832 10889 ft 291 kts 154°
2026-05-05 18:47 47.64074 8.81380 10886 ft 291 kts 154°
2026-05-05 18:47 47.62342 8.82938 10878 ft 291 kts 152°
2026-05-05 18:47 47.60676 8.84405 10888 ft 292 kts 154°
2026-05-05 18:47 47.58924 8.85922 10892 ft 292 kts 154°
2026-05-05 18:48 47.57158 8.87417 10890 ft 291 kts 158°
2026-05-05 18:48 47.55247 8.88132 10892 ft 281 kts 184°
2026-05-05 18:48 47.53382 8.87507 10895 ft 275 kts 210°
2026-05-05 18:48 47.51962 8.85726 10894 ft 272 kts 236°
2026-05-05 18:49 47.51264 8.83148 10895 ft 274 kts 262°
2026-05-05 18:49 47.51296 8.81252 10882 ft 277 kts 278°
2026-05-05 18:49 47.52051 8.78629 10588 ft 281 kts 299°
2026-05-05 18:49 47.53229 8.76311 10292 ft 280 kts 303°
2026-05-05 18:50 47.54811 8.73416 10134 ft 267 kts 304°
2026-05-05 18:50 47.55963 8.71338 10009 ft 258 kts 304°
2026-05-05 18:50 47.57088 8.69326 9868 ft 250 kts 304°
2026-05-05 18:50 47.57835 8.67998 9690 ft 248 kts 304°
2026-05-05 18:51 47.58926 8.66059 9389 ft 246 kts 304°
2026-05-05 18:51 47.60018 8.64116 9072 ft 244 kts 304°
2026-05-05 18:51 47.61098 8.62189 8750 ft 242 kts 304°
2026-05-05 18:51 47.62172 8.60267 8432 ft 241 kts 304°
2026-05-05 18:52 47.63233 8.58362 8094 ft 239 kts 304°
2026-05-05 18:52 47.64284 8.56469 7770 ft 237 kts 304°
2026-05-05 18:52 47.65329 8.54582 7454 ft 234 kts 304°
2026-05-05 18:52 47.66342 8.52756 7339 ft 225 kts 304°
2026-05-05 18:53 47.67320 8.50997 7210 ft 217 kts 303°
2026-05-05 18:53 47.67976 8.49087 7050 ft 203 kts 279°
2026-05-05 18:53 47.68144 8.47060 6800 ft 198 kts 259°
2026-05-05 18:53 47.67727 8.45171 6607 ft 190 kts 246°
2026-05-05 18:54 47.67088 8.43501 6187 ft 190 kts 230°
2026-05-05 18:54 47.66127 8.42118 5735 ft 191 kts 224°
2026-05-05 18:54 47.65142 8.40837 5460 ft 183 kts 224°
2026-05-05 18:54 47.64204 8.39636 5212 ft 174 kts 224°
2026-05-05 18:55 47.63232 8.38627 4833 ft 177 kts 203°
2026-05-05 18:55 47.61978 8.38557 4417 ft 186 kts 177°
2026-05-05 18:55 47.60697 8.38887 4034 ft 186 kts 174°
2026-05-05 18:55 47.59423 8.39259 4011 ft 188 kts 174°
2026-05-05 18:56 47.58190 8.39972 3995 ft 196 kts 150°
2026-05-05 18:56 47.57175 8.41294 3837 ft 188 kts 141°
2026-05-05 18:56 47.56273 8.42555 3622 ft 167 kts 142°
2026-05-05 18:56 47.55462 8.43676 3418 ft 154 kts 142°
2026-05-05 18:57 47.54695 8.44728 3205 ft 148 kts 142°
2026-05-05 18:57 47.53944 8.45756 3003 ft 146 kts 141°
2026-05-05 18:57 47.53200 8.46776 2817 ft 146 kts 140°
2026-05-05 18:57 47.52470 8.47823 2638 ft 146 kts 140°
2026-05-05 18:58 47.51721 8.48836 2459 ft 146 kts 143°
2026-05-05 18:58 47.50968 8.49839 2214 ft 146 kts 138°
2026-05-05 18:58 47.50243 8.50854 1969 ft 139 kts 140°
2026-05-05 18:58 47.49556 8.51789 1768 ft 130 kts 137°
2026-05-05 18:59 47.48902 8.52685 1640 ft 127 kts 140°
2026-05-05 18:59 47.48238 8.53581 1465 ft 132 kts 139°
2026-05-05 18:59 47.47513 8.54568 1714 ft 155 kts 139°
2026-05-05 18:59 47.46642 8.55740 2435 ft 179 kts 139°
2026-05-05 19:00 47.45689 8.57036 3076 ft 193 kts 140°
2026-05-05 19:00 47.44679 8.58465 3406 ft 214 kts 139°
2026-05-05 19:00 47.43590 8.60046 3893 ft 224 kts 139°
2026-05-05 19:00 47.42490 8.61673 3993 ft 224 kts 139°
2026-05-05 19:01 47.41388 8.63313 4005 ft 224 kts 138°
2026-05-05 19:01 47.40542 8.65244 4008 ft 230 kts 109°
2026-05-05 19:01 47.40518 8.67587 4010 ft 233 kts 73°
2026-05-05 19:01 47.41354 8.69590 4006 ft 231 kts 39°
2026-05-05 19:02 47.42680 8.70909 4006 ft 229 kts 27°
2026-05-05 19:02 47.44106 8.71940 4004 ft 226 kts 11°
2026-05-05 19:02 47.45644 8.72329 4008 ft 224 kts
2026-05-05 19:02 47.47193 8.72574 4026 ft 224 kts
2026-05-05 19:03 47.48740 8.72830 4009 ft 224 kts
2026-05-05 19:03 47.50280 8.73187 4005 ft 226 kts 12°
2026-05-05 19:03 47.51687 8.74250 4014 ft 230 kts 31°
2026-05-05 19:03 47.53017 8.75561 4024 ft 232 kts 31°
2026-05-05 19:04 47.54372 8.76908 4669 ft 234 kts 31°
2026-05-05 19:04 47.55721 8.78258 5367 ft 236 kts 31°
2026-05-05 19:04 47.57091 8.79628 6022 ft 239 kts 31°
2026-05-05 19:04 47.58318 8.81329 6623 ft 248 kts 55°
2026-05-05 19:05 47.58952 8.83692 6950 ft 248 kts 85°
2026-05-05 19:05 47.58784 8.86157 6934 ft 237 kts 109°
2026-05-05 19:05 47.58279 8.88459 6584 ft 234 kts 113°
2026-05-05 19:05 47.57729 8.90722 6207 ft 233 kts 114°
2026-05-05 19:06 47.57176 8.92961 6001 ft 231 kts 114°
2026-05-05 19:06 47.56620 8.95196 6004 ft 233 kts 114°
2026-05-05 19:06 47.56055 8.97447 6008 ft 232 kts 116°
2026-05-05 19:06 47.55133 8.99314 6001 ft 222 kts 149°
2026-05-05 19:07 47.53747 9.00061 6009 ft 210 kts 184°
2026-05-05 19:07 47.52377 8.99541 6013 ft 203 kts 210°
2026-05-05 19:07 47.51142 8.98538 6013 ft 203 kts 213°
2026-05-05 19:07 47.49976 8.97526 6004 ft 187 kts 214°
2026-05-05 19:08 47.48870 8.96569 6011 ft 181 kts 214°
2026-05-05 19:08 47.47801 8.95645 6012 ft 181 kts 213°
2026-05-05 19:08 47.46738 8.94676 6002 ft 179 kts 221°
2026-05-05 19:08 47.45994 8.93246 5747 ft 174 kts 241°
2026-05-05 19:09 47.45438 8.91689 5395 ft 175 kts 247°
2026-05-05 19:09 47.45123 8.89941 5033 ft 177 kts 258°
2026-05-05 19:09 47.44861 8.88165 5009 ft 178 kts 257°
2026-05-05 19:09 47.44591 8.86372 5004 ft 179 kts 257°
2026-05-05 19:10 47.44322 8.84591 5008 ft 179 kts 258°
2026-05-05 19:10 47.44050 8.82774 5009 ft 179 kts 258°
2026-05-05 19:10 47.43933 8.80949 5020 ft 179 kts 274°
2026-05-05 19:10 47.44068 8.79203 5005 ft 167 kts 275°
2026-05-05 19:11 47.44192 8.77522 5000 ft 161 kts 275°
2026-05-05 19:11 47.44310 8.75921 4870 ft 156 kts 273°
2026-05-05 19:11 47.44425 8.74347 4659 ft 153 kts 273°
2026-05-05 19:11 47.44537 8.72779 4382 ft 153 kts 273°
2026-05-05 19:12 47.44650 8.71215 4065 ft 154 kts 274°
2026-05-05 19:12 47.44759 8.69633 3760 ft 154 kts 273°
2026-05-05 19:12 47.44865 8.68067 3429 ft 153 kts 273°
2026-05-05 19:12 47.44965 8.66501 3089 ft 154 kts 273°
2026-05-05 19:13 47.45066 8.64933 2691 ft 151 kts 275°
2026-05-05 19:13 47.45194 8.63427 2398 ft 146 kts 276°
2026-05-05 19:13 47.45308 8.61962 2132 ft 146 kts 274°
2026-05-05 19:13 47.45417 8.60469 1927 ft 146 kts 273°
2026-05-05 19:14 47.45519 8.58995 1764 ft 144 kts 274°
2026-05-05 19:14 47.45627 8.57538 1532 ft 144 kts 273°
2026-05-05 19:14 47.45727 8.56138 1417 ft 123 kts 275°
2026-05-05 19:14 47.45794 8.55125 1402 ft 74 kts 276°
2026-05-05 19:15 47.45832 8.54581 1387 ft 43 kts 270°
2026-05-05 19:15 47.45772 8.54329 1385 ft 21 kts 253°
2026-05-05 19:15 47.45700 8.54210 1383 ft 11 kts 197°
2026-05-05 19:15 47.45631 8.54237 1385 ft 11 kts 133°
2026-05-05 19:16 47.45602 8.54336 1384 ft 10 kts 105°
2026-05-05 19:16 47.45577 8.54426 1388 ft 9 kts 110°
2026-05-05 19:16 47.45553 8.54528 1389 ft 14 kts 104°
2026-05-05 19:16 47.45525 8.54667 1397 ft 15 kts 110°
2026-05-05 19:17 47.45492 8.54820 1397 ft 17 kts 106°
2026-05-05 19:17 47.45450 8.54988 1399 ft 17 kts 110°
2026-05-05 19:17 47.45414 8.55145 1400 ft 16 kts 109°
2026-05-05 19:17 47.45373 8.55304 1408 ft 16 kts 117°
2026-05-05 19:18 47.45320 8.55449 1406 ft 16 kts 121°
2026-05-05 19:18 47.45275 8.55593 1407 ft 15 kts 101°
2026-05-05 19:18 47.45267 8.55709 1407 ft 8 kts 96°
2026-05-05 19:18 47.45293 8.55746 1407 ft 5 kts 18°
2026-05-05 19:19 47.45328 8.55752 1411 ft 5 kts
2026-05-05 19:19 47.45342 8.55754 1409 ft 0 kts
2026-05-05 19:19 47.45350 8.55755 1413 ft 1 kts